AEST,Max TemperatureF,Mean TemperatureF,Min TemperatureF,Max Dew PointF,MeanDew PointF,Min DewpointF,Max Humidity, Mean Humidity, Min Humidity, Max Sea Level PressureIn, Mean Sea Level PressureIn, Min Sea Level PressureIn, Max VisibilityMiles, Mean VisibilityMiles, Min VisibilityMiles, Max Wind SpeedMPH, Mean Wind SpeedMPH, Max Gust SpeedMPH,PrecipitationIn, CloudCover, Events, WindDirDegrees
2013-10-1,80,76,72,70,68,66,94,78,59,30.11,30.05,30.00,,,,17,11,,0.00,,,70
2013-10-2,80,76,71,72,69,68,94,80,63,30.07,30.00,29.92,,,,16,7,,0.00,,,81
2013-10-3,82,76,71,72,69,68,94,81,62,29.98,29.93,29.83,,,,26,10,38,0.08,,,332
2013-10-4,75,73,71,72,68,63,100,81,62,30.04,29.97,29.89,,,,31,15,,0.00,,,143
2013-10-5,78,74,71,69,64,59,88,70,53,30.07,30.00,29.95,,,,24,18,,0.00,,,106
2013-10-6,78,73,68,66,62,59,88,66,47,30.04,29.97,29.89,,,,16,9,,0.00,,,72
2013-10-7,79,73,67,68,66,63,88,76,58,29.96,29.89,29.83,,,,24,9,,0.00,,,322
2013-10-8,84,78,72,73,70,66,100,80,56,29.92,29.86,29.80,,,,23,17,,0.00,,,316
2013-10-9,81,76,72,73,70,64,100,81,63,30.08,30.01,29.89,,,,30,18,,0.00,,,117
2013-10-10,78,76,73,66,63,57,78,64,43,30.14,30.06,30.01,,,,24,19,,0.00,,,94
2013-10-11,82,76,71,64,61,58,78,59,36,30.05,29.99,29.92,,,,17,8,,0.00,,,21
2013-10-12,84,77,70,68,64,57,83,64,37,30.04,29.97,29.92,,,,18,9,,0.02,,,58
2013-10-13,82,77,72,72,68,61,94,75,48,30.01,29.96,29.89,,,,18,9,,0.00,,,34
2013-10-14,82,78,73,75,73,71,94,85,68,29.98,29.92,29.86,,,,23,12,,0.00,,,337
2013-10-15,80,76,73,75,72,66,100,84,62,30.11,30.03,29.95,,,,30,13,,0.01,,,105
2013-10-16,80,76,73,70,66,61,83,69,45,30.12,30.07,30.01,,,,26,22,,0.00,,,100
2013-10-17,80,76,73,70,68,64,83,74,62,30.10,30.04,29.98,,,,21,15,,0.00,,,89
2013-10-18,82,77,72,72,70,70,94,80,65,30.09,30.03,29.98,,,,21,10,,0.00,,,83
2013-10-19,80,77,74,73,71,68,89,80,65,30.10,30.06,30.01,,,,28,18,,0.00,,,102
2013-10-20,82,78,73,70,69,64,83,75,59,30.09,30.03,29.97,,,,25,22,,0.00,,,115
2013-10-21,81,76,72,72,69,66,94,76,60,30.05,29.99,29.95,,,,28,23,,0.00,,,113
2013-10-22,80,76,73,72,70,68,94,78,63,30.02,29.97,29.92,,,,22,20,,0.00,,,101
2013-10-23,81,77,73,70,67,64,83,71,52,30.01,29.95,29.89,,,,17,14,,0.01,,,86
2013-10-24,82,77,72,68,63,61,83,62,43,29.99,29.94,29.89,,,,16,9,,0.00,,,72
2013-10-25,81,76,72,70,67,64,83,70,52,30.05,30.00,29.92,,,,22,9,,0.00,,,82
2013-10-26,82,78,75,70,68,66,78,71,57,30.10,30.04,30.01,,,,21,18,,0.00,,,97
2013-10-27,81,78,74,69,67,64,78,69,56,30.10,30.05,30.01,,,,21,12,,0.00,,,87
2013-10-28,82,78,73,64,64,61,69,61,46,30.12,30.06,30.01,,,,18,13,,0.00,,,80
2013-10-29,86,80,73,66,63,59,73,59,37,30.06,30.00,29.92,,,,16,12,,0.00,,,26
2013-10-30,80,76,72,68,66,64,78,67,53,29.99,29.92,29.83,,,,24,12,,0.00,,,341
2013-10-31,84,78,73,70,68,64,83,71,48,30.01,29.95,29.89,,,,18,9,,0.01,,,51